Powrót do katalogu

STARLINK-30579

AktywnyŁącznośćVLEO
NORAD 58061·PAYLOAD·🇺🇸 United States

Wystrzelony Oct 13, 2023 z Cape Canaveral Space Force Station

Loading…

Następne Przeloty (najbliższe 24 godziny)

TLE

ŚwieżeSource: CelesTrak SupGP

Epoka: Sep 14, 2026, 21:09 UTC

1 58061C 23158L   26257.88173611 -.00014817  00000+0 -53640-3 0  2576
2 58061  43.0040  12.7936 0001807 273.6179 321.8989 15.27601518    19

Śledź STARLINK-30579 w czasie rzeczywistym z AllMySat

Download on the App Store